Regional Weather Roundup
Issued by NWS

Home | Current Version | Previous Version | Text Only | Print | Product List | Glossary On
Versions: 1 2 3 4 5 6 7 8 9 10 11 12 13 14 15 16 17 18 19 20 21 22 23 24 25 26 27 28 29 30 31 32 33 34 35 36 37 38 39 40 41 42 43 44 45 46 47 48 49 50
000
ASUS43 KOAX 292202
RWRNE

WEATHER ROUNDUP FOR NEBRASKA
NATIONAL WEATHER SERVICE OMAHA NE
500 PM CDT FRI AUG 29 2014

NOTES: SATELLITE DATA IS BEING USED TO AUGMENT CLOUD COVER ABOVE
       12000 FEET.
       "FAIR" INDICATES FEW OR NO CLOUDS BELOW 12,000 FEET WITH NO
       SIGNIFICANT WEATHER AND/OR OBSTRUCTIONS TO VISIBILITY.

  * THESE STATIONS DO NOT REPORT WEATHER SUCH AS RAIN...SNOW OR FOG.

NEZ001>004-019>022-054>056-292300-
NEBRASKA PANHANDLE

CITY           SKY/WX    TMP DP  RH WIND       PRES   REMARKS
SCOTTSBLUFF    MOSUNNY   82  51  34 NE8       30.00F
ALLIANCE       MOSUNNY   77  52  41 N14       30.01S
CHADRON        MOSUNNY   76  55  48 NE12      29.99F
KIMBALL        SUNNY     77  47  33 N9        30.04F
SIDNEY         MOSUNNY   83  49  30 N16       30.02S
$$

NEZ057>060-069>072-079>082-292300-
SOUTHWEST NEBRASKA

CITY           SKY/WX    TMP DP  RH WIND       PRES   REMARKS
NORTH PLATTE   MOSUNNY   83  56  39 N9        29.87S
IMPERIAL       SUNNY     84  53  34 N14G22    29.93S
LEXINGTON      MOSUNNY   83  59  44 N5        29.86S
MCCOOK         SUNNY     87  54  32 N8        29.88S
OGALLALA       MOSUNNY   82  51  34 N10G24    29.93S
$$

NEZ005>010-023>029-035>040-094-292300-
NORTH CENTRAL NEBRASKA

CITY           SKY/WX    TMP DP  RH WIND       PRES   REMARKS
VALENTINE      MOSUNNY   81  60  48 NW23G31   29.89R
AINSWORTH      MOSUNNY   78  60  53 NW9       29.85F
BROKEN BOW     SUNNY     83  59  44 N12G22    29.85S
O`NEILL        MOSUNNY   77  68  73 N10       29.83F
ORD            MOSUNNY   80  64  58 NW10      29.82F
THEDFORD       PTSUNNY   81  57  43 N9G16     29.89S
$$

NEZ041-046>049-061>064-073>077-083>087-292300-
SOUTH CENTRAL NEBRASKA

CITY           SKY/WX    TMP DP  RH WIND       PRES   REMARKS
GRAND ISLAND   CLOUDY    69  65  86 W3        29.83F
AURORA         CLOUDY    71  69  96 NW3       29.81F
HASTINGS       MOSUNNY   72  62  71 CALM      29.84S THUNDER
HEBRON         PTSUNNY   78  65  64 W6        29.82S
HOLDREGE       SUNNY     82  57  43 NW6G16    29.86S
KEARNEY *      SUNNY     82  57  42 NW14G22   29.85S
$$

NEZ011>018-030>034-042>045-292300-
NORTHEAST NEBRASKA

CITY           SKY/WX    TMP DP  RH WIND       PRES   REMARKS
NORFOLK        CLOUDY    76  67  73 NW10      29.78R
ALBION         CLOUDY    69  66  89 NW6       29.81R
BLAIR          LGT RAIN  70  67  92 SE3       29.79R
FREMONT        CLOUDY    75  66  73 W9        29.78S
TEKAMAH        HVY RAIN  68  66  93 CALM      29.77R VSB 1
WAYNE          CLOUDY    72  68  86 CALM      29.78R
$$

NEZ050>053-065>068-078-088>093-292300-
SOUTHEAST NEBRASKA

CITY           SKY/WX    TMP DP  RH WIND       PRES   REMARKS
LINCOLN        CLOUDY    72  64  76 W6        29.80S
OMAHA EPPLEY   HVY RAIN  69  66  90 W5        29.79R FOG
BEATRICE       CLOUDY    71  68  90 SW5       29.80S
FALLS CITY     MOSUNNY   83  67  58 SW7       29.77F
NEBRASKA CITY  PTSUNNY   74  71  93 S6        29.80R
PLATTSMOUTH    CLOUDY    73  67  84 S8        29.79R
$$

NEZ044-045-051>053-067-292300-
OMAHA AREA

CITY           SKY/WX    TMP DP  RH WIND       PRES   REMARKS
OMAHA EPPLEY   HVY RAIN  69  66  90 W5        29.79R FOG
BLAIR          LGT RAIN  70  67  92 SE3       29.79R
FREMONT        CLOUDY    75  66  73 W9        29.78S
MILLARD        LGT RAIN  72  68  87 CALM      29.78R
OFFUTT AFB     RAIN      69  69 100 VRB2G16   29.78R
PLATTSMOUTH    CLOUDY    73  67  84 S8        29.79R
WAHOO          MOCLDY    74  64  70 W8        29.78S
$$


USA.gov is the U.S. government's official web portal to all federal, state and local government web resources and services.